Date,TemperatureHighF,TemperatureAvgF,TemperatureLowF,DewpointHighF,DewpointAvgF,DewpointLowF,HumidityHigh,HumidityAvg,HumidityLow,PressureMaxIn,PressureMinIn,WindSpeedMaxMPH,WindSpeedAvgMPH,GustSpeedMaxMPH,PrecipitationSumIn
2013-6-1,67,53,40,48,40,33,78,62,42,30.23,29.91,20,4,20,0.00
2013-6-2,64,52,41,50,43,36,88,72,53,29.95,29.80,21,5,21,0.09
2013-6-3,67,56,47,49,43,38,77,63,42,30.01,29.90,25,6,25,0.00
2013-6-4,73,58,41,51,42,36,84,59,34,30.08,29.98,14,4,14,0.00
2013-6-5,77,62,44,54,46,39,84,58,32,30.02,29.87,21,4,21,0.00
2013-6-6,83,66,52,58,51,44,79,60,34,29.94,29.82,12,4,12,0.00
2013-6-7,78,66,51,57,49,34,83,57,36,29.88,29.75,22,6,22,0.00
2013-6-8,75,62,50,51,42,37,65,49,32,29.97,29.86,20,4,20,0.00
2013-6-9,72,62,50,53,44,38,68,53,35,29.90,29.77,18,6,18,0.00
2013-6-10,74,64,49,48,43,38,68,47,34,29.81,29.64,14,4,14,0.00
2013-6-11,66,56,46,46,40,35,73,56,44,29.99,29.69,18,5,18,0.00
2013-6-12,63,54,44,47,40,33,80,61,48,30.03,29.94,18,5,18,0.00
2013-6-13,63,53,44,47,40,35,80,61,48,30.04,29.96,17,6,17,0.00
2013-6-14,65,53,43,44,39,35,79,60,38,30.15,30.02,17,5,17,0.00
2013-6-15,76,58,42,46,40,34,78,53,27,30.07,29.88,20,5,20,0.00
2013-6-16,81,66,46,48,41,34,66,43,23,29.95,29.79,15,4,15,0.00
2013-6-17,79,68,56,56,49,41,67,50,38,29.91,29.71,22,4,22,0.00
2013-6-18,70,58,49,56,49,44,91,72,54,29.83,29.70,28,9,28,0.01
2013-6-19,50,47,43,49,45,40,96,94,89,29.92,29.72,21,7,21,1.23
2013-6-20,59,48,44,48,42,38,93,80,58,30.06,29.88,34,13,34,0.16
2013-6-21,60,49,42,52,45,41,95,88,67,30.11,30.02,16,4,16,0.12
2013-6-22,65,54,44,51,46,41,94,73,51,30.09,29.89,10,3,10,0.00
2013-6-23,68,58,45,55,48,40,86,71,53,29.90,29.53,12,5,12,0.00
2013-6-24,64,55,51,59,52,47,96,90,68,29.71,29.52,20,4,20,0.45
2013-6-25,64,54,46,57,51,44,96,89,65,29.87,29.70,33,6,33,0.79
2013-6-26,64,56,51,59,54,49,96,92,82,30.08,29.85,15,4,15,0.49
2013-6-27,82,64,50,67,57,48,95,80,51,30.12,30.05,16,5,16,0.00
2013-6-28,86,71,56,68,60,52,91,69,44,30.13,29.92,10,3,10,0.00
2013-6-29,83,71,59,70,62,55,92,73,56,29.96,29.82,22,7,22,0.00
2013-6-30,86,73,61,68,59,52,82,62,36,29.96,29.83,17,3,17,0.00